www.pogodaiklimat.ru

Погода и климат >> Архив погоды >> Мексика >> Арриага


ПОГОДА в Арриаге

  • Прогноз погоды в Арриаге
  • Монитор погоды в Арриаге

АРХИВ ПОГОДЫ в Арриаге

Время (UTC), дата Ветер
(напр.,м/с)
 
Видим.   Явления Облачность Т
(С)
Тd
(С)
f
(%)
Тe
(С)
Тes
(С)
Комфортность P
(гПа)
Po
(гПа)
Тmin
(С)
Tmax
(С)
R
(мм)
R24
(мм)
S
(см)
06 17.07 штиль 0 3000 м {морось} 6/0 2000 м
[Ac lent]
+27.4 +24.7 85 +39 +39 очень
душно
1013.0 1007.5 +20.0 +34.4 0.7
09 17.07 штиль 0 2000 м 9/0
[As op]
+26.2 +24.6 91 +37 +37 очень
душно
1011.2 1005.6
12 17.07 штиль 0 3000 м 6/0 2000 м
[Ac lent]
+25.2 +29.7 100 +36 +36 очень
душно
1011.8 1006.2 +22.6 +34.4
15 17.07 С 1 3000 м 5/0 2000 м
[Ac trans]
+30.4 +24.0 69 +42 +51 опасность
перегрева
1012.4 1006.8
18 17.07 С 2 3000 м 6/0
[Cs]
+35.0 +27.2 64 +53 +73 опасность
перегрева
1011.6 1006.1 +22.6 +36.4
21 17.07 штиль 0 5000 м 5/5 800 м
[Sc diur, vesp]
+34.4 +27.6 68 +54 +63 опасность
перегрева
1010.0 1004.6
00 18.07 С 2 5000 м 6/3 800 м
[Cu hum Ac trans]
+32.8 +27.0 72 +51 +51 опасность
перегрева
1009.4 1004.0 +22.6 +37.0
03 18.07 С 3 5000 м 6/4 800 м
[Cu hum Ac As]
+30.6 +27.5 84 +49 +49 опасность
перегрева
1011.2 1005.7
12 18.07 С 3 1000 м 4/4 800 м
[Sc diur, vesp]
+28.6 +24.5 79 +41 +41 опасность
перегрева
1010.6 1005.1 +24.0 +37.0
15 18.07 С 3 5000 м 4/0 2000 м
[Ac trans]
+30.8 +26.0 76 +46 +53 опасность
перегрева
1012.1 1006.6
18 18.07 С 1 3000 м 5/1 840 м
[Cu med, cong Ac trans]
+34.0 +25.2 60 +48 +65 опасность
перегрева
1012.0 1006.5 +24.0 +35.0
21 18.07 штиль 0 4000 м 8/4 840 м
[Sc diur, vesp Cs]
+33.4 +26.9 69 +51 +61 опасность
перегрева
1009.8 1004.3
00 19.07 штиль 0 2000 м 10/0 2000 м
[As op]
+28.4 +26.3 88 +43 +43 опасность
перегрева
1010.9 1005.4 +24.0 +36.4
03 19.07 штиль 0 1000 м дождь 8/0 2000 м
[As op]
+23.6 +21.6 89 +30 +30 очень
душно
1012.5 1007.0 6
06 19.07 штиль 0 1000 м дождь 5/0
[Cs]
+24.0 +22.6 92 +31 +31 очень
душно
1012.7 1007.2 +24.0 +36.4 3
12 19.07 штиль 0 2000 м 8/4 840 м
[Cu hum As trans]
+25.2 +22.4 84 +33 +33 очень
душно
1010.5 1004.9 +22.0 +36.4
15 19.07 С 3 4000 м 6/0
[Cs]
+29.6 +26.2 82 +45 +53 опасность
перегрева
1011.7 1006.1
18 19.07 С 3 4000 м 6/0
[Cs]
+33.2 +29.1 79 +57 +73 опасность
перегрева
1011.4 1005.9 +22.0 +36.2
21 19.07 С 1 5000 м 6/0
[Cs]
+35.8 +31.0 76 +66 +80 опасность
перегрева
1009.5 1004.0
00 20.07 штиль 0 5000 м 8/1 800 м
[Cu hum Cs]
+33.2 +29.1 79 +57 +58 опасность
перегрева
1009.2 1003.8 +22.0 +36.2
03 20.07 С 1 1000 м ясно +30.8 +27.1 81 +49 +49 опасность
перегрева
1010.6 1005.2
09 20.07 С 2 1000 м 3/0
[Ac lent]
+29.6 +28.6 94 +50 +50 опасность
перегрева
1009.5 1004.1
12 20.07 С 3 3000 м 3/0
[Ac lent]
+28.8 +27.3 92 +46 +46 опасность
перегрева
1008.4 1003.0 +23.8
15 20.07 С 2 4000 м 3/0 2000 м
[Ac lent Cs]
+30.4 +25.9 77 +45 +55 опасность
перегрева
1009.4 1003.9
18 20.07 С 2 4000 м 4/0 2000 м
[Ac lent]
+34.0 +29.4 77 +59 +74 опасность
перегрева
1009.4 1004.0 +23.8 +34.8
21 20.07 С 1 4000 м 4/1 800 м
[Cu med, cong Cs]
+35.8 +30.4 74 +64 +77 опасность
перегрева
1008.2 1002.8
00 21.07 С 2 4000 м в посл. час морось 6/4 800 м
[Cb cap As op]
+31.0 +26.4 77 +47 +48 опасность
перегрева
1009.1 1003.7 +23.8 +36.8 0.2
03 21.07 штиль 0 1000 м зарница {гроза} 4/4 800 м
[Cb cap]
+27.0 +24.3 85 +38 +38 очень
душно
1011.4 1006.0
06 21.07 С 1 1000 м зарница {гроза} 4/4 800 м
[Cb cap]
+26.0 +24.7 93 +37 +37 очень
душно
1010.8 1005.3 +36.8
09 21.07 С 3 1000 м 9/0
[Ac lent]
+26.8 +25.8 94 +40 +40 очень
душно
1010.2 1004.7
12 21.07 С 2 3000 м 5/0 2000 м
[Ac lent]
+27.0 +25.0 89 +39 +39 очень
душно
1009.7 1004.2 +23.5 +36.8
15 21.07 С 3 4000 м 5/0 2000 м
[Ac lent]
+29.8 +25.5 78 +44 +49 опасность
перегрева
1010.5 1005.0
18 21.07 С 3 4000 м 4/0 2000 м
[Ac lent]
+33.4 +25.7 64 +48 +61 опасность
перегрева
1010.4 1004.9 +23.5 +34.4
21 21.07 С 1 3000 м 3/3 840 м
[Cu med, cong]
+37.0 +30.5 70 +66 +77 опасность
перегрева
1008.5 1003.1
00 22.07 штиль 0 3000 м 5/1 840 м
[Cb calv As op]
+32.6 +28.2 78 +54 +54 опасность
перегрева
1008.2 1002.8 +23.5 +38.0
03 22.07 С 2 2000 м 6/1 840 м
[Cb cap As op]
+29.0 +26.4 86 +44 +44 опасность
перегрева
1011.1 1005.7
06 22.07 штиль 0 2000 м 5/1 840 м
[Cb cap Ac trans]
+29.0 +26.4 86 +44 +44 опасность
перегрева
1011.0 1005.6 +22.0 +38.0
09 22.07 С 1 2000 м 6/1 840 м
[Cb cap As op]
+28.6 +26.0 86 +43 +43 опасность
перегрева
1011.0 1005.5
12 22.07 штиль 0 3000 м слаб. морось 10/0 2000 м
[As op]
+25.4 +24.6 95 +36 +36 очень
душно
1011.3 1005.8 +22.0 +38.0 0.4
15 22.07 штиль 0 3000 м 9/0 2000 м
[As trans]
+27.4 +25.5 89 +40 +47 очень
душно
1012.4 1006.9
18 22.07 С 1 3000 м 5/1 840 м
[Cu med, cong Cs]
+32.0 +27.0 75 +50 +71 опасность
перегрева
1013.2 1007.7 +22.0 +33.2
21 22.07 штиль 0 5000 м 5/1 800 м
[Cu med, cong Cs]
+33.4 +27.1 70 +52 +67 опасность
перегрева
1011.7 1006.2
00 23.07 штиль 0 5000 м 6/3 800 м
[Cu hum Ac trans]
+30.6 +26.6 79 +47 +47 опасность
перегрева
1011.7 1006.2 +22.0 +36.0
03 23.07 штиль 0 100 м 4/0 2000 м
[Ac trans]
+28.6 +25.7 84 +42 +42 опасность
перегрева
1013.2 1007.7
09 23.07 штиль 0 100 м 3/3 800 м
[Cu hum]
+25.6 +24.2 92 +35 +35 очень
душно
1013.9 1008.2
12 23.07 штиль 0 100 м 1/1 800 м
[Cu hum]
+25.0 +23.9 94 +34 +34 очень
душно
1013.4 1007.8 +22.0
15 23.07 штиль 0 4000 м 4/0 2000 м
[Ac lent]
+29.8 +26.9 84 +46 +56 опасность
перегрева
1014.2 1008.6
18 23.07 штиль 0 3000 м 3/3 840 м
[Cu med, cong]
+34.2 +27.5 68 +53 +74 опасность
перегрева
1013.3 1007.8 +22.0 +35.2
21 23.07 штиль 0 5000 м 5/5 840 м
[Sc]
+35.0 +29.1 72 +59 +68 опасность
перегрева
1011.1 1005.6
00 24.07 штиль 0 3000 м 10/3 840 м
[Sc As op Cs]
+31.6 +28.2 82 +52 +53 опасность
перегрева
1012.0 1006.5 +22.0 +37.2
03 24.07 штиль 0 1000 м дождь 4/0
[Cc]
+26.6 +25.3 93 +39 +39 очень
душно
1013.3 1007.8 2

 

Местоположение метеостанции Арриага (Мексика): широта 16.23 долгота -93.90 высота над уровнем моря 48 м.

В архиве по умолчанию представлена погода в Арриаге за последнюю неделю. Архивные данные за месяц целиком и за предыдущие месяцы, начиная с января 2011 года, Вы можете получить, выбрав интересующий диапазон дат из раскрывающегося списка и нажав кнопку "Ввод!".


*Определитесь, кто Вы:
робот инопланетянин человек

Внимание! Время в таблицах - всемирное. Для получения местного времени необходимо прибавить поправку, которая равна -6 ч.

Смотрите также архив погоды в соседних городах и на ближайших метеорологических станциях:

Погода в Тустла-Гутьерресе (Мексика) (100 км)
Погода в Салина-Крусе (Мексика) (137 км)
Погода в Сан-Кристобаль-де-лас-Касасе (Мексика) (147 км)
Погода в Комитане (Мексика) (189 км)
Погода в Коацакоалькосе (Мексика) (218 км)
Погода в Вильяэрмосе (Мексика) (220 км)
Погода в Тапачуле (Мексика) (229 км)
Погода в Уэуэтенанго (Гватемала) (280 км)
Погода в Пуэрто-Анхеле (Мексика) (283 км)
Погода в Оахаке (Мексика) (313 км)

Пояснения к столбцам:

Ветер - указаны скорость ветра в м/с - средняя за 10 мин, порывы в срок и между сроками (в фигурных скобках) и направление, откуда дует ветер: С - северный, СВ - северо-восточный, В - восточный, ЮВ - юго-восточный, Ю - южный, ЮЗ - юго-западный, З - западный, СЗ - северо-западный.
Видимость - горизонтальная дальность видимости в метрах или километрах. При видимости от 1 до 10 км при отсутствии осадков обычно наблюдается дымка, при ухудшении видимости до 1 км и менее - туман. В сухую погоду видимость может ухудшаться дымом, пылью или мглою.
Явления - указаны атмосферные явления, наблюдавшиеся в срок или в последний час перед сроком; фигурными скобками обозначены явления, наблюдавшиеся между сроками (за 1-3 часа до срока); квадратными скобками обозначены град или гололедные отложения с указанием их диаметра в мм.
Облачность - указаны через наклонную черту общая и нижняя облачность в баллах и высота нижней границы облаков в метрах; квадратными скобками обозначены формы облаков: Ci - перистые, Cs - перисто-слоистые, Cc - перисто-кучевые, Ac - высококучевые, As - высокослоистые, Sc - слоисто-кучевые, Ns - слоисто-дождевые, Cu - кучевые, Cb - кучево-дождевые. Подробнее классификацию облаков см. в Атласе облаков (PDF).
T - Температура воздуха - температура, измеренная на высоте 2 м над землей.
Td - Температура точки росы - температура, при понижении до которой содержащийся в воздухе водяной пар достигнет насыщения.
f - Относительная влажность воздуха - влажноcть воздуха, измеренная на высоте 2 м над землей.
Te - Эффективная температура - температура, которую ощущает одетый по сезону человек в тени. Характеристика душности погоды. При расчете учитывается влияние влажности воздуха и скорости ветра на теплоощущения человека.
Tes - Эффективная температура на солнце - температура, которую ощущает человек, с поправкой на солнечный нагрев. Характеристика знойности погоды. Зависит от высоты солнца над горизонтом, облачности и скорости ветра. Ночью, в пасмурную погоду, а также при ветре 12 м/с и более поправка равна нулю.
P - Атмосферное давление - приведенное к уровню моря атмосферное давление.
Po - Атмосферное давление - измеренное на уровне метеостанции атмосферное давление.
Tmin - Минимальная температура - минимум температуры воздуха на высоте 2 м над землей.
Tmax - Максимальная температура - максимум температуры воздуха на высоте 2 м над землей.
R - Количество осадков - Количество выпавших осадков за период времени, мм. При наведении курсора мыши на число - период времени, за который выпало указанное количество осадков.
R24 - Количество осадков - Количество выпавших осадков за 24 часа, мм.
S - Снежный покров - Высота снежного покрова, см. При наведении курсора мыши на число - состояние снежного покрова и степень покрытия местности в баллах.